Tracking 19628 objects as of 26-May-2019
HD Live streaming from Space Station
objects crossing your sky now
Watch Starlink satellites crossing your sky!

ETS 7


ETS 7 is no longer on orbit
ETS 7 is classified as:


NORAD ID: 25064
Int'l Code: 1997-074B
Perigee: N/A
Apogee: N/A
Inclination: N/A
Period: N/A
Semi major axis: N/A
RCS: N/A
Launch date: November 27, 1997
Source: Japan (JPN)
Launch site: TANEGASHIMA SPACE CENTER (TNSTA)
Decay date: 2015-11-13
aabbcc
Your satellite tracking list
Your tracking list is empty




NASA's NSSDC Master Catalog

Two Line Element Set (TLE):
1 25064U 97074B   15317.55165423  .26730472  13244-5  30781-3 0  9994
2 25064  34.9359  47.5162 0000010  27.6526 340.7388 16.50240502  1915
Source of the keplerian elements: AFSPC